STARLINK-34248 (64928 NORAD) Tracking and Keplerian Element Data

This shows tracking and keplerian element data for the satellite.

Feedback or suggestion? Click here.




ElementValue
Catalog64928
NameSTARLINK-34248
Epoch Orbit2390
Epoch Day354.16555679
Epoch Year2025
RAAN358.2158
Inclination53.1591
Eccentricity0.0001024
Argument of Perigee77.4378
Mean Anonmoly282.6741
Mean Motion15.39635255
Decay Rate0.00031326
L11 64928U 25157AA 25354.16555679 .00031326 00000+0 78952-3 0 9990
L22 64928 53.1591 358.2158 0001024 77.4378 282.6741 15.39635255 23908



Live tracking and technical data element details for STARLINK-34248 (NORAD 64928). STARLINK-34248 can be tracked NOW for your location showing map with azimuth and elevation plus other details from your city location.







IsCatalogInMostPopularTable: catalog: 64928, numindb: 3
Update: records affected: 1



GetName: 64928 STARLINK-34248

Hit Count: updated at: Sun, 08 Feb 2026 17:09:30 GMT